| time (UTC) | temp C | wind direction | speed KPH | gust KPH | rain 1hr cm | rain 24hr cm | rain mn cm | humidity % | barometer mb |
| 20260503193249 | 18 | 130 | 0.0 | 0.0 | 0.00 | 0.00 | 0.00 | 56 | 1014.2 |
| 20260503192744 | 18 | 151 | 0.0 | 1.6 | 0.00 | 0.00 | 0.00 | 55 | 1014.1 |
| 20260503192239 | 19 | 165 | 1.6 | 1.6 | 0.00 | 0.00 | 0.00 | 52 | 1014.2 |
| 20260503191737 | 20 | 149 | 3.2 | 3.2 | 0.00 | 0.00 | 0.00 | 53 | 1014.1 |
| 20260503191234 | 19 | 165 | 0.0 | 0.0 | 0.00 | 0.00 | 0.00 | 54 | 1014.2 |
| 20260503190731 | 19 | 151 | 0.0 | 1.6 | 0.00 | 0.00 | 0.00 | 54 | 1014.2 |
| 20260503190228 | 18 | 162 | 0.0 | 1.6 | 0.00 | 0.00 | 0.00 | 55 | 1014.1 |
| 20260503185725 | 18 | 263 | 3.2 | 3.2 | 0.00 | 0.00 | 0.00 | 56 | 1014.2 |
| 20260503185220 | 17 | 168 | 0.0 | 0.0 | 0.00 | 0.00 | 0.00 | 61 | 1014.4 |
| 20260503184715 | 18 | 150 | 0.0 | 1.6 | 0.00 | 0.00 | 0.00 | 60 | 1014.4 |
| 20260503184212 | 17 | 191 | 0.0 | 1.6 | 0.00 | 0.00 | 0.00 | 59 | 1014.2 |
| 20260503183708 | 17 | 155 | 0.0 | 0.0 | 0.00 | 0.00 | 0.00 | 60 | 1014.4 |
| 20260503183205 | 17 | 326 | 3.2 | 3.2 | 0.00 | 0.00 | 0.00 | 60 | 1014.3 |
| 20260503182704 | 17 | 185 | 1.6 | 1.6 | 0.00 | 0.00 | 0.00 | 61 | 1014.3 |
| 20260503182202 | 17 | 94 | 3.2 | 3.2 | 0.00 | 0.00 | 0.00 | 62 | 1014.5 |
| 20260503181658 | 17 | 183 | 0.0 | 0.0 | 0.00 | 0.00 | 0.00 | 62 | 1014.3 |
| 20260503181155 | 16 | 192 | 1.6 | 1.6 | 0.00 | 0.00 | 0.00 | 63 | 1014.2 |
| 20260503180651 | 16 | 13 | 3.2 | 3.2 | 0.00 | 0.00 | 0.00 | 64 | 1014.4 |
| 20260503180150 | 17 | 236 | 0.0 | 0.0 | 0.00 | 0.00 | 0.00 | 64 | 1014.5 |
| 20260503175647 | 16 | 172 | 0.0 | 0.0 | 0.00 | 0.00 | 0.00 | 63 | 1014.5 |
| 20260503175144 | 16 | 202 | 0.0 | 0.0 | 0.00 | 0.00 | 0.00 | 64 | 1014.4 |
| 20260503174640 | 16 | 150 | 1.6 | 3.2 | 0.00 | 0.00 | 0.00 | 64 | 1014.3 |
| 20260503174138 | 16 | 201 | 0.0 | 1.6 | 0.00 | 0.00 | 0.00 | 65 | 1014.4 |
| 20260503173632 | 16 | 168 | 0.0 | 1.6 | 0.00 | 0.00 | 0.00 | 66 | 1014.4 |
| 20260503173129 | 15 | 219 | 1.6 | 3.2 | 0.00 | 0.00 | 0.00 | 67 | 1014.4 |
| 20260503172621 | 15 | 220 | 1.6 | 1.6 | 0.00 | 0.00 | 0.00 | 69 | 1014.3 |
| 20260503172118 | 15 | 151 | 1.6 | 1.6 | 0.00 | 0.00 | 0.00 | 69 | 1014.5 |
| 20260503171614 | 16 | 169 | 1.6 | 1.6 | 0.00 | 0.00 | 0.00 | 66 | 1014.4 |
| 20260503171112 | 16 | 259 | 0.0 | 1.6 | 0.00 | 0.00 | 0.00 | 69 | 1014.4 |
| 20260503170609 | 15 | 200 | 0.0 | 0.0 | 0.00 | 0.00 | 0.00 | 71 | 1014.3 |
| 20260503170105 | 15 | 177 | 0.0 | 0.0 | 0.00 | 0.00 | 0.00 | 73 | 1014.4 |
| 20260503151000 | 14 | 184 | 0.0 | 0.0 | 0.00 | 0.00 | 0.00 | 71 | 1013.8 |
| 20260503150456 | 14 | 169 | 0.0 | 0.0 | 0.00 | 0.00 | 0.00 | 72 | 1013.8 |
| 20260503131349 | 12 | 187 | 0.0 | 0.0 | 0.00 | 0.00 | 0.00 | 80 | 1012.5 |
| 20260503130847 | 12 | 187 | 0.0 | 0.0 | 0.00 | 0.00 | 0.00 | 80 | 1012.6 |
| 20260503130344 | 12 | 171 | 0.0 | 0.0 | 0.00 | 0.00 | 0.00 | 80 | 1012.4 |
| 20260503110733 | 12 | 192 | 1.6 | 1.6 | 0.00 | 0.00 | 0.00 | 79 | 1012.5 |
| 20260503110230 | 12 | 202 | 0.0 | 1.6 | 0.00 | 0.00 | 0.00 | 80 | 1012.4 |
| 20260503100155 | 12 | 195 | 0.0 | 1.6 | 0.00 | 0.00 | 0.00 | 79 | 1012.5 |
| 20260503090114 | 12 | 270 | 1.6 | 3.2 | 0.00 | 0.00 | 0.00 | 79 | 1012.8 |
| 20260503081550 | 13 | 209 | 1.6 | 1.6 | 0.00 | 0.00 | 0.00 | 78 | 1013.2 |
| 20260503081048 | 13 | 206 | 1.6 | 1.6 | 0.00 | 0.00 | 0.00 | 78 | 1013.1 |
| 20260503080544 | 13 | 293 | 3.2 | 3.2 | 0.00 | 0.00 | 0.00 | 78 | 1013.2 |
| 20260503072517 | 13 | 188 | 0.0 | 0.0 | 0.00 | 0.00 | 0.00 | 78 | 1013.3 |
| 20260503072014 | 13 | 294 | 1.6 | 1.6 | 0.00 | 0.00 | 0.00 | 78 | 1013.5 |
| 20260503071511 | 13 | 178 | 1.6 | 1.6 | 0.00 | 0.00 | 0.00 | 78 | 1013.4 |
| 20260503071008 | 13 | 136 | 1.6 | 1.6 | 0.00 | 0.00 | 0.00 | 78 | 1013.3 |
| 20260503070504 | 13 | 284 | 1.6 | 3.2 | 0.00 | 0.00 | 0.00 | 78 | 1013.5 |
| 20260503054922 | 13 | 212 | 0.0 | 0.0 | 0.00 | 0.00 | 0.00 | 77 | 1013.9 |
| 20260503054419 | 13 | 291 | 3.2 | 3.2 | 0.00 | 0.00 | 0.00 | 77 | 1013.6 |
| 20260503053917 | 13 | 184 | 0.0 | 0.0 | 0.00 | 0.00 | 0.00 | 77 | 1013.8 |
| 20260503053414 | 13 | 232 | 1.6 | 1.6 | 0.00 | 0.00 | 0.00 | 77 | 1013.9 |
| 20260503052910 | 13 | 268 | 1.6 | 1.6 | 0.00 | 0.00 | 0.00 | 77 | 1013.7 |
| 20260503052408 | 13 | 286 | 3.2 | 3.2 | 0.00 | 0.00 | 0.00 | 77 | 1013.8 |
| 20260503051904 | 13 | 264 | 3.2 | 3.2 | 0.00 | 0.00 | 0.00 | 76 | 1013.8 |
| 20260503051400 | 13 | 233 | 1.6 | 3.2 | 0.00 | 0.00 | 0.00 | 76 | 1013.8 |
| 20260503050857 | 13 | 216 | 1.6 | 3.2 | 0.00 | 0.00 | 0.00 | 76 | 1013.8 |
| 20260503050353 | 13 | 0 | 1.6 | 1.6 | 0.00 | 0.00 | 0.00 | 75 | 1013.7 |
| 20260503045851 | 13 | 317 | 3.2 | 4.8 | 0.00 | 0.00 | 0.00 | 76 | 1013.7 |
| 20260503045349 | 13 | 22 | 3.2 | 4.8 | 0.00 | 0.00 | 0.00 | 76 | 1013.7 |
| 20260503044845 | 13 | 224 | 3.2 | 4.8 | 0.00 | 0.00 | 0.00 | 76 | 1013.8 |
| 20260503044342 | 13 | 299 | 3.2 | 4.8 | 0.00 | 0.00 | 0.00 | 76 | 1013.8 |
| 20260503043839 | 13 | 323 | 3.2 | 4.8 | 0.00 | 0.00 | 0.00 | 76 | 1013.5 |
| 20260503043336 | 13 | 335 | 3.2 | 4.8 | 0.00 | 0.00 | 0.00 | 76 | 1013.7 |
| 20260503042832 | 13 | 276 | 3.2 | 3.2 | 0.00 | 0.00 | 0.00 | 77 | 1013.3 |
| 20260503042329 | 13 | 355 | 4.8 | 4.8 | 0.00 | 0.00 | 0.00 | 77 | 1013.6 |
| 20260503041825 | 13 | 331 | 4.8 | 4.8 | 0.00 | 0.00 | 0.00 | 77 | 1013.6 |
| 20260503041322 | 13 | 77 | 6.4 | 9.7 | 0.00 | 0.00 | 0.00 | 76 | 1013.5 |
| 20260503040820 | 13 | 325 | 1.6 | 3.2 | 0.00 | 0.00 | 0.00 | 76 | 1013.5 |
| 20260503040317 | 13 | 188 | 1.6 | 3.2 | 0.00 | 0.00 | 0.00 | 76 | 1013.4 |
| 20260503035814 | 13 | 323 | 8.0 | 11.3 | 0.00 | 0.00 | 0.00 | 76 | 1013.4 |
| 20260503035312 | 13 | 190 | 3.2 | 3.2 | 0.00 | 0.00 | 0.00 | 76 | 1013.4 |
| 20260503034809 | 13 | 12 | 3.2 | 4.8 | 0.00 | 0.00 | 0.00 | 76 | 1013.3 |
| 20260503034305 | 13 | 146 | 4.8 | 6.4 | 0.00 | 0.00 | 0.00 | 76 | 1013.1 |
| 20260503033803 | 13 | 336 | 3.2 | 4.8 | 0.00 | 0.00 | 0.00 | 76 | 1013.1 |
| 20260503033300 | 13 | 349 | 6.4 | 9.7 | 0.00 | 0.00 | 0.00 | 76 | 1013.1 |
| 20260503032758 | 13 | 267 | 6.4 | 9.7 | 0.00 | 0.00 | 0.00 | 76 | 1012.9 |
| 20260503032257 | 13 | 285 | 3.2 | 4.8 | 0.00 | 0.00 | 0.00 | 75 | 1013.0 |
| 20260503031753 | 13 | 352 | 9.7 | 12.9 | 0.00 | 0.00 | 0.00 | 75 | 1013.1 |
| 20260503031252 | 13 | 345 | 6.4 | 11.3 | 0.00 | 0.00 | 0.00 | 74 | 1013.0 |
| 20260503030747 | 14 | 30 | 1.6 | 3.2 | 0.00 | 0.00 | 0.00 | 74 | 1012.9 |
| 20260503030244 | 14 | 307 | 6.4 | 9.7 | 0.00 | 0.00 | 0.00 | 73 | 1012.8 |
| 20260503025741 | 14 | 298 | 6.4 | 9.7 | 0.00 | 0.00 | 0.00 | 73 | 1012.8 |
| 20260503025239 | 14 | 346 | 9.7 | 11.3 | 0.00 | 0.00 | 0.00 | 73 | 1012.6 |
| 20260503024735 | 14 | 306 | 1.6 | 3.2 | 0.00 | 0.00 | 0.00 | 73 | 1012.7 |
| 20260503024232 | 14 | 310 | 3.2 | 4.8 | 0.00 | 0.00 | 0.00 | 73 | 1012.6 |
| 20260503023729 | 14 | 305 | 4.8 | 6.4 | 0.00 | 0.00 | 0.00 | 72 | 1012.6 |
| 20260503023226 | 14 | 324 | 9.7 | 11.3 | 0.00 | 0.00 | 0.00 | 72 | 1012.5 |
| 20260503022722 | 14 | 27 | 4.8 | 9.7 | 0.00 | 0.00 | 0.00 | 72 | 1012.5 |
| 20260503022217 | 15 | 11 | 8.0 | 11.3 | 0.00 | 0.00 | 0.00 | 71 | 1012.4 |
| 20260503021714 | 15 | 3 | 0.0 | 1.6 | 0.00 | 0.00 | 0.00 | 71 | 1012.5 |
| 20260503021210 | 15 | 21 | 8.0 | 11.3 | 0.00 | 0.00 | 0.00 | 71 | 1012.4 |
| 20260503020708 | 15 | 312 | 3.2 | 4.8 | 0.00 | 0.00 | 0.00 | 70 | 1012.4 |
| 20260503020205 | 15 | 231 | 3.2 | 4.8 | 0.00 | 0.00 | 0.00 | 71 | 1012.4 |
| 20260503015702 | 16 | 278 | 6.4 | 9.7 | 0.00 | 0.00 | 0.00 | 70 | 1012.4 |
| 20260503015159 | 16 | 5 | 4.8 | 6.4 | 0.00 | 0.00 | 0.00 | 70 | 1012.5 |
| 20260503014654 | 17 | 354 | 6.4 | 9.7 | 0.00 | 0.00 | 0.00 | 69 | 1012.3 |
| 20260503014153 | 16 | 308 | 3.2 | 3.2 | 0.00 | 0.00 | 0.00 | 69 | 1012.3 |
| 20260503013650 | 17 | 302 | 4.8 | 6.4 | 0.00 | 0.00 | 0.00 | 69 | 1012.3 |
| 20260503013148 | 17 | 259 | 1.6 | 1.6 | 0.00 | 0.00 | 0.00 | 69 | 1012.2 |
| 20260503012644 | 17 | 312 | 1.6 | 1.6 | 0.00 | 0.00 | 0.00 | 68 | 1012.3 |
| 20260503012141 | 17 | 206 | 1.6 | 1.6 | 0.00 | 0.00 | 0.00 | 69 | 1012.4 |
| 20260503011637 | 17 | 332 | 6.4 | 9.7 | 0.00 | 0.00 | 0.00 | 68 | 1012.4 |
| 20260503011135 | 17 | 342 | 4.8 | 6.4 | 0.00 | 0.00 | 0.00 | 67 | 1012.2 |
| 20260503010631 | 17 | 163 | 1.6 | 3.2 | 0.00 | 0.00 | 0.00 | 68 | 1012.2 |
| 20260503010129 | 17 | 181 | 1.6 | 3.2 | 0.00 | 0.00 | 0.00 | 67 | 1012.4 |
| 20260503005625 | 17 | 336 | 4.8 | 4.8 | 0.00 | 0.00 | 0.00 | 66 | 1012.4 |
| 20260503005123 | 18 | 329 | 4.8 | 6.4 | 0.00 | 0.00 | 0.00 | 65 | 1012.3 |
| 20260503004619 | 18 | 292 | 1.6 | 3.2 | 0.00 | 0.00 | 0.00 | 65 | 1012.1 |
| 20260503004118 | 18 | 297 | 6.4 | 9.7 | 0.00 | 0.00 | 0.00 | 65 | 1012.1 |
| 20260503003614 | 18 | 319 | 3.2 | 4.8 | 0.00 | 0.00 | 0.00 | 65 | 1012.3 |
| 20260503003111 | 18 | 195 | 1.6 | 4.8 | 0.00 | 0.00 | 0.00 | 65 | 1012.4 |
| 20260503002608 | 18 | 283 | 4.8 | 4.8 | 0.00 | 0.00 | 0.00 | 64 | 1012.4 |
| 20260503002104 | 18 | 57 | 6.4 | 9.7 | 0.00 | 0.00 | 0.00 | 66 | 1012.4 |
| 20260503001601 | 18 | 277 | 4.8 | 6.4 | 0.00 | 0.00 | 0.00 | 66 | 1012.4 |
| 20260503001058 | 18 | 302 | 14.5 | 16.1 | 0.00 | 0.00 | 0.00 | 65 | 1012.5 |
| 20260503000555 | 18 | 352 | 6.4 | 9.7 | 0.00 | 0.00 | 0.00 | 65 | 1012.5 |
| 20260503000052 | 18 | 304 | 8.0 | 11.3 | 0.00 | 0.00 | 0.00 | 64 | 1012.4 |
| 20260502235548 | 18 | 280 | 8.0 | 12.9 | 0.00 | 0.00 | 0.00 | 66 | 1012.3 |
| 20260502235047 | 18 | 297 | 9.7 | 12.9 | 0.00 | 0.00 | 0.00 | 62 | 1012.6 |
| 20260502234543 | 19 | 350 | 6.4 | 9.7 | 0.00 | 0.00 | 0.00 | 62 | 1012.5 |
| 20260502234041 | 18 | 331 | 11.3 | 12.9 | 0.00 | 0.00 | 0.00 | 64 | 1012.6 |
| 20260502233540 | 19 | 288 | 3.2 | 3.2 | 0.00 | 0.00 | 0.00 | 62 | 1012.5 |
| 20260502233038 | 19 | 3 | 3.2 | 4.8 | 0.00 | 0.00 | 0.00 | 63 | 1012.6 |
| 20260502232534 | 18 | 311 | 8.0 | 12.9 | 0.00 | 0.00 | 0.00 | 64 | 1012.7 |
| 20260502232032 | 18 | 326 | 6.4 | 11.3 | 0.00 | 0.00 | 0.00 | 65 | 1012.9 |
| 20260502231528 | 18 | 319 | 8.0 | 11.3 | 0.00 | 0.00 | 0.00 | 65 | 1012.8 |
| 20260502231026 | 18 | 321 | 4.8 | 9.7 | 0.00 | 0.00 | 0.00 | 65 | 1013.0 |
| 20260502230524 | 18 | 276 | 8.0 | 9.7 | 0.00 | 0.00 | 0.00 | 67 | 1013.1 |
| 20260502230022 | 18 | 311 | 12.9 | 14.5 | 0.00 | 0.00 | 0.00 | 64 | 1013.1 |
| 20260502225517 | 20 | 85 | 1.6 | 4.8 | 0.00 | 0.00 | 0.00 | 61 | 1013.2 |
| 20260502225015 | 20 | 71 | 6.4 | 6.4 | 0.00 | 0.00 | 0.00 | 62 | 1013.2 |
| 20260502224511 | 19 | 14 | 4.8 | 4.8 | 0.00 | 0.00 | 0.00 | 62 | 1013.2 |
| 20260502224008 | 19 | 10 | 8.0 | 11.3 | 0.00 | 0.00 | 0.00 | 62 | 1013.5 |
| 20260502223506 | 20 | 314 | 4.8 | 9.7 | 0.00 | 0.00 | 0.00 | 62 | 1013.3 |
| 20260502223004 | 19 | 322 | 8.0 | 14.5 | 0.00 | 0.00 | 0.00 | 62 | 1013.3 |
| 20260502222501 | 20 | 303 | 9.7 | 12.9 | 0.00 | 0.00 | 0.00 | 64 | 1013.6 |
| 20260502221956 | 20 | 206 | 1.6 | 3.2 | 0.00 | 0.00 | 0.00 | 62 | 1013.7 |
| 20260502221453 | 20 | 320 | 6.4 | 9.7 | 0.00 | 0.00 | 0.00 | 61 | 1013.8 |
| 20260502220950 | 20 | 1 | 4.8 | 6.4 | 0.00 | 0.00 | 0.00 | 60 | 1013.7 |
| 20260502220445 | 21 | 288 | 8.0 | 11.3 | 0.00 | 0.00 | 0.00 | 60 | 1013.6 |
| 20260502215943 | 20 | 264 | 4.8 | 6.4 | 0.00 | 0.00 | 0.00 | 62 | 1013.9 |
| 20260502215440 | 19 | 42 | 8.0 | 11.3 | 0.00 | 0.00 | 0.00 | 64 | 1013.9 |
| 20260502214937 | 20 | 318 | 12.9 | 16.1 | 0.00 | 0.00 | 0.00 | 61 | 1014.0 |
| 20260502214433 | 20 | 337 | 3.2 | 3.2 | 0.00 | 0.00 | 0.00 | 64 | 1014.1 |
| 20260502213931 | 20 | 302 | 8.0 | 11.3 | 0.00 | 0.00 | 0.00 | 61 | 1013.9 |
| 20260502213427 | 18 | 332 | 4.8 | 4.8 | 0.00 | 0.00 | 0.00 | 65 | 1014.1 |
| 20260502212926 | 18 | 323 | 11.3 | 16.1 | 0.00 | 0.00 | 0.00 | 66 | 1014.1 |
| 20260502212425 | 19 | 315 | 9.7 | 11.3 | 0.00 | 0.00 | 0.00 | 64 | 1014.3 |
| 20260502211921 | 20 | 356 | 6.4 | 11.3 | 0.00 | 0.00 | 0.00 | 63 | 1014.3 |
| 20260502211417 | 20 | 343 | 3.2 | 3.2 | 0.00 | 0.00 | 0.00 | 61 | 1014.3 |
| 20260502210914 | 20 | 71 | 1.6 | 1.6 | 0.00 | 0.00 | 0.00 | 64 | 1014.3 |
| 20260502210411 | 20 | 170 | 0.0 | 1.6 | 0.00 | 0.00 | 0.00 | 65 | 1014.1 |
| 20260502205909 | 20 | 320 | 6.4 | 9.7 | 0.00 | 0.00 | 0.00 | 63 | 1014.4 |
| 20260502205404 | 19 | 356 | 6.4 | 6.4 | 0.00 | 0.00 | 0.00 | 64 | 1014.6 |
| 20260502204902 | 20 | 162 | 3.2 | 4.8 | 0.00 | 0.00 | 0.00 | 63 | 1014.4 |
| 20260502204359 | 20 | 322 | 6.4 | 9.7 | 0.00 | 0.00 | 0.00 | 63 | 1014.6 |
| 20260502203856 | 20 | 35 | 4.8 | 6.4 | 0.00 | 0.00 | 0.00 | 61 | 1014.5 |
| 20260502203354 | 20 | 46 | 3.2 | 4.8 | 0.00 | 0.00 | 0.00 | 63 | 1014.5 |
| 20260502202849 | 20 | 135 | 3.2 | 4.8 | 0.00 | 0.00 | 0.00 | 63 | 1014.5 |
| 20260502202347 | 20 | 192 | 3.2 | 4.8 | 0.00 | 0.00 | 0.00 | 60 | 1014.6 |
| 20260502201845 | 20 | 187 | 3.2 | 4.8 | 0.00 | 0.00 | 0.00 | 64 | 1014.8 |
| 20260502201341 | 18 | 183 | 1.6 | 1.6 | 0.00 | 0.00 | 0.00 | 66 | 1014.7 |
| 20260502200837 | 18 | 315 | 3.2 | 4.8 | 0.00 | 0.00 | 0.00 | 65 | 1014.7 |
| 20260502200333 | 20 | 80 | 4.8 | 9.7 | 0.00 | 0.00 | 0.00 | 64 | 1014.9 |
| 20260502195831 | 20 | 291 | 3.2 | 6.4 | 0.00 | 0.00 | 0.00 | 61 | 1015.0 |
| 20260502195327 | 19 | 172 | 1.6 | 1.6 | 0.00 | 0.00 | 0.00 | 64 | 1015.0 |
| 20260502194824 | 19 | 33 | 3.2 | 3.2 | 0.00 | 0.00 | 0.00 | 64 | 1014.9 |
| 20260502194321 | 20 | 116 | 1.6 | 3.2 | 0.00 | 0.00 | 0.00 | 64 | 1014.9 |
| 20260502193817 | 19 | 58 | 1.6 | 1.6 | 0.00 | 0.00 | 0.00 | 65 | 1015.1 |